Location: Stara Lesna
(49.1528°N, 20.2911°E)
Time: 21:57:17
(UTC+02:00)

Cosmos 2266 Rocket - Pass Details

Date: 21 September 2019
Orbit: 934 x 1008 km, 82.9° (Epoch: 12 October)

Event Time Altitude Azimuth Distance (km) Brightness Sun altitude
Rises 05:10:57 0° 184° (S) 3,611 6.8 -12.5°
Reaches altitude 10° 05:13:26 10° 183° (S) 2,661 6.1 -12.1°
Maximum altitude 05:19:30 82° 97° (E) 954 4.1 -11.1°
Drops below altitude 10° 05:25:33 10° 11° (N) 2,657 6.6 -10.1°
Sets 05:28:02 0° 11° (N) 3,605 7.3 -9.8°
